ANA274 RJFF-RJTT

Flight info

Callsign ANA274
Flight time N/A
Altitude 33000
Route IPRIR Y231 OMKAT Y235 FLUTE Y23 ARTIC Y71 XAC
Aircraft A21N/M-SDE2E3FGHIRWXY/LB1

Departure

Time 2026-04-28 05:29
Airport Fukuoka Airport (RJFF)

Arrival

Time N/A
Airport Tokyo Haneda International Airport (RJTT)
Time Latitude Longitude Altitude Speed Heading
2026-04-28 04:55 33.59523 130.44866 29 ft 0 kts 62°
2026-04-28 05:00 33.59523 130.44865 29 ft 0 kts 62°
2026-04-28 05:06 33.59523 130.44864 29 ft 0 kts 62°
2026-04-28 05:09 33.59522 130.44864 29 ft 0 kts 62°
2026-04-28 05:12 33.59522 130.44863 29 ft 0 kts 62°
2026-04-28 05:17 33.59522 130.44862 29 ft 0 kts 62°
2026-04-28 05:21 33.59516 130.44850 29 ft 4 kts 62°
2026-04-28 05:21 33.59505 130.44825 29 ft 2 kts 61°
2026-04-28 05:21 33.59497 130.44798 30 ft 4 kts 92°
2026-04-28 05:22 33.59506 130.44773 30 ft 4 kts 140°
2026-04-28 05:22 33.59527 130.44757 31 ft 4 kts 151°
2026-04-28 05:22 33.59550 130.44741 31 ft 3 kts 151°
2026-04-28 05:22 33.59553 130.44739 31 ft 0 kts 151°
2026-04-28 05:23 33.59554 130.44739 31 ft 0 kts 151°
2026-04-28 05:24 33.59553 130.44740 31 ft 1 kts 151°
2026-04-28 05:25 33.59536 130.44750 31 ft 4 kts 153°
2026-04-28 05:25 33.59500 130.44733 31 ft 8 kts 225°
2026-04-28 05:25 33.59512 130.44666 32 ft 11 kts 328°
2026-04-28 05:25 33.59587 130.44621 32 ft 13 kts 329°
2026-04-28 05:26 33.59672 130.44560 32 ft 16 kts 330°
2026-04-28 05:26 33.59778 130.44487 32 ft 19 kts 330°
2026-04-28 05:26 33.59852 130.44426 29 ft 6 kts 293°
2026-04-28 05:26 33.59831 130.44369 29 ft 10 kts 210°
2026-04-28 05:27 33.59752 130.44338 30 ft 14 kts 194°
2026-04-28 05:27 33.59696 130.44328 31 ft 1 kts 180°
2026-04-28 05:27 33.59673 130.44334 31 ft 6 kts 150°
2026-04-28 05:27 33.59662 130.44346 31 ft 3 kts 152°
2026-04-28 05:28 33.59631 130.44364 32 ft 5 kts 149°
2026-04-28 05:28 33.59623 130.44369 32 ft 4 kts 151°
2026-04-28 05:28 33.59361 130.44546 31 ft 91 kts 154°
2026-04-28 05:28 33.58578 130.45072 49 ft 164 kts 152°
2026-04-28 05:29 33.57593 130.45733 859 ft 160 kts 153°
2026-04-28 05:29 33.56604 130.46374 1718 ft 165 kts 160°
2026-04-28 05:29 33.55496 130.46995 2333 ft 186 kts 159°
2026-04-28 05:29 33.54247 130.47788 2836 ft 222 kts 156°
2026-04-28 05:30 33.52800 130.48719 3540 ft 248 kts 157°
2026-04-28 05:30 33.51219 130.49710 4471 ft 263 kts 156°
2026-04-28 05:30 33.49566 130.50742 5563 ft 272 kts 157°
2026-04-28 05:30 33.47858 130.51805 6610 ft 283 kts 158°
2026-04-28 05:31 33.46085 130.52908 7683 ft 289 kts 158°
2026-04-28 05:31 33.44296 130.54023 8845 ft 291 kts 158°
2026-04-28 05:31 33.42488 130.55148 9986 ft 294 kts 158°
2026-04-28 05:31 33.40626 130.56305 10700 ft 314 kts 158°
2026-04-28 05:32 33.38597 130.57560 11100 ft 340 kts 158°
2026-04-28 05:32 33.36441 130.58897 11457 ft 365 kts 158°
2026-04-28 05:32 33.34118 130.60344 11789 ft 389 kts 157°
2026-04-28 05:32 33.31747 130.62112 12150 ft 413 kts 146°
2026-04-28 05:33 33.29759 130.64674 12755 ft 429 kts 129°
2026-04-28 05:33 33.28412 130.67897 13493 ft 442 kts 112°
2026-04-28 05:33 33.27819 130.71539 14133 ft 453 kts 96°
2026-04-28 05:33 33.28050 130.75320 14683 ft 462 kts 79°
2026-04-28 05:34 33.29055 130.78998 15342 ft 470 kts 67°
2026-04-28 05:34 33.30271 130.82648 16046 ft 476 kts 68°
2026-04-28 05:34 33.31388 130.86400 16710 ft 483 kts 70°
2026-04-28 05:34 33.32404 130.90259 17311 ft 490 kts 72°
2026-04-28 05:35 33.33358 130.94142 17947 ft 495 kts 72°
2026-04-28 05:35 33.34320 130.98124 18519 ft 501 kts 72°
2026-04-28 05:35 33.35294 131.02147 19048 ft 506 kts 72°
2026-04-28 05:35 33.36277 131.06211 19570 ft 511 kts 73°
2026-04-28 05:36 33.37267 131.10304 20083 ft 516 kts 73°
2026-04-28 05:36 33.38261 131.14452 20589 ft 521 kts 74°
2026-04-28 05:36 33.39008 131.18721 21125 ft 526 kts 80°
2026-04-28 05:36 33.39652 131.23060 21726 ft 531 kts 80°
2026-04-28 05:37 33.40299 131.27435 22285 ft 536 kts 80°
2026-04-28 05:37 33.40954 131.31848 22811 ft 541 kts 80°
2026-04-28 05:37 33.41610 131.36263 23278 ft 546 kts 80°
2026-04-28 05:37 33.42278 131.40760 23733 ft 550 kts 80°
2026-04-28 05:38 33.42951 131.45284 24132 ft 554 kts 80°
2026-04-28 05:38 33.43626 131.49848 24494 ft 558 kts 79°
2026-04-28 05:38 33.44301 131.54429 24877 ft 560 kts 79°
2026-04-28 05:38 33.44975 131.59020 25368 ft 559 kts 79°
2026-04-28 05:39 33.45646 131.63597 25956 ft 556 kts 79°
2026-04-28 05:39 33.46313 131.68158 26471 ft 556 kts 79°
2026-04-28 05:39 33.46980 131.72710 26976 ft 555 kts 79°
2026-04-28 05:39 33.47644 131.77275 27518 ft 555 kts 79°
2026-04-28 05:40 33.48306 131.81833 27940 ft 556 kts 79°
2026-04-28 05:40 33.48969 131.86401 28400 ft 557 kts 78°
2026-04-28 05:40 33.49630 131.90975 28903 ft 556 kts 78°
2026-04-28 05:40 33.50288 131.95540 29406 ft 556 kts 78°
2026-04-28 05:41 33.50943 132.00099 29882 ft 555 kts 78°
2026-04-28 05:41 33.51584 132.04596 30373 ft 553 kts 78°
2026-04-28 05:41 33.52231 132.09129 30822 ft 551 kts 78°
2026-04-28 05:41 33.52875 132.13654 31273 ft 550 kts 78°
2026-04-28 05:42 33.53516 132.18180 31648 ft 550 kts 79°
2026-04-28 05:42 33.54155 132.22698 32042 ft 548 kts 79°
2026-04-28 05:42 33.54789 132.27193 32493 ft 546 kts 79°
2026-04-28 05:42 33.55543 132.31642 32866 ft 544 kts 72°
2026-04-28 05:43 33.56759 132.35927 33018 ft 542 kts 67°
2026-04-28 05:43 33.58040 132.40181 33021 ft 542 kts 67°
2026-04-28 05:43 33.60585 132.48681 32990 ft 542 kts 68°
2026-04-28 05:44 33.63114 132.57218 32976 ft 543 kts 68°
2026-04-28 05:44 33.65620 132.65704 32960 ft 542 kts 68°
2026-04-28 05:45 33.68138 132.74244 32992 ft 543 kts 68°
2026-04-28 05:45 33.70647 132.82808 32967 ft 544 kts 68°
2026-04-28 05:46 33.73157 132.91390 32965 ft 544 kts 68°
2026-04-28 05:46 33.75669 132.99976 32984 ft 545 kts 68°
2026-04-28 05:47 33.78177 133.08576 32966 ft 545 kts 68°
2026-04-28 05:47 33.80657 133.17133 32953 ft 545 kts 68°
2026-04-28 05:48 33.83151 133.25745 32968 ft 546 kts 68°
2026-04-28 05:48 33.85645 133.34377 32957 ft 546 kts 68°
2026-04-28 05:49 33.88128 133.43012 32946 ft 546 kts 68°
2026-04-28 05:49 33.90605 133.51650 32995 ft 545 kts 68°
2026-04-28 05:50 33.93079 133.60304 32960 ft 547 kts 68°
2026-04-28 05:50 33.95552 133.68978 32943 ft 547 kts 68°
2026-04-28 05:51 33.98017 133.77641 32960 ft 546 kts 68°
2026-04-28 05:51 34.00479 133.86323 32950 ft 548 kts 69°
2026-04-28 05:52 34.02932 133.95017 32938 ft 548 kts 69°
2026-04-28 05:52 34.04811 134.03937 32920 ft 550 kts 76°
2026-04-28 05:53 34.06456 134.12935 32939 ft 548 kts 76°
2026-04-28 05:53 34.08101 134.21929 32937 ft 548 kts 76°
2026-04-28 05:54 34.09726 134.30861 32921 ft 549 kts 76°
2026-04-28 05:54 34.11353 134.39871 32923 ft 551 kts 76°
2026-04-28 05:55 34.12997 134.48901 32906 ft 551 kts 76°
2026-04-28 05:55 34.14621 134.57931 32905 ft 551 kts 76°
2026-04-28 05:56 34.16243 134.66967 32917 ft 552 kts 76°
2026-04-28 05:56 34.17859 134.76037 32912 ft 553 kts 76°
2026-04-28 05:57 34.19472 134.85123 32915 ft 553 kts 76°
2026-04-28 05:57 34.21079 134.94203 32931 ft 553 kts 76°
2026-04-28 05:58 34.22665 135.03308 32913 ft 554 kts 77°
2026-04-28 05:58 34.23941 135.10890 32925 ft 554 kts 77°
2026-04-28 05:59 34.25485 135.20024 32900 ft 553 kts 77°
2026-04-28 05:59 34.27269 135.30622 32913 ft 552 kts 77°
2026-04-28 06:00 34.28538 135.38201 32913 ft 553 kts 77°
2026-04-28 06:00 34.30054 135.47311 32923 ft 552 kts 77°
2026-04-28 06:01 34.31547 135.56429 32930 ft 552 kts 77°
2026-04-28 06:01 34.33056 135.65540 32933 ft 553 kts 77°
2026-04-28 06:02 34.34568 135.74660 32931 ft 553 kts 77°
2026-04-28 06:02 34.36061 135.83795 32917 ft 553 kts 77°
2026-04-28 06:03 34.37547 135.92925 32925 ft 553 kts 78°
2026-04-28 06:03 34.39020 136.02062 32942 ft 554 kts 78°
2026-04-28 06:04 34.40489 136.11217 32924 ft 554 kts 78°
2026-04-28 06:04 34.41959 136.20332 32917 ft 555 kts 78°
2026-04-28 06:05 34.43425 136.29517 32904 ft 556 kts 78°
2026-04-28 06:05 34.44884 136.38724 32917 ft 555 kts 78°
2026-04-28 06:06 34.46327 136.47891 32910 ft 554 kts 78°
2026-04-28 06:06 34.47768 136.57050 32941 ft 553 kts 78°
2026-04-28 06:07 34.49202 136.66236 32931 ft 555 kts 78°
2026-04-28 06:07 34.50625 136.75425 32933 ft 555 kts 78°
2026-04-28 06:08 34.52047 136.84629 32936 ft 556 kts 78°
2026-04-28 06:08 34.53460 136.93805 32934 ft 556 kts 78°
2026-04-28 06:09 34.53934 137.03165 32937 ft 559 kts 90°
2026-04-28 06:09 34.53976 137.12593 32931 ft 559 kts 90°
2026-04-28 06:10 34.54041 137.22039 32945 ft 559 kts 90°
2026-04-28 06:10 34.54102 137.31449 32949 ft 558 kts 90°
2026-04-28 06:11 34.54155 137.40863 32954 ft 557 kts 90°
2026-04-28 06:11 34.54197 137.50256 32943 ft 557 kts 90°
2026-04-28 06:12 34.54236 137.59652 32961 ft 556 kts 90°
2026-04-28 06:12 34.54268 137.68981 32940 ft 549 kts 90°
2026-04-28 06:13 34.54292 137.78356 32952 ft 558 kts 90°
2026-04-28 06:13 34.54306 137.87731 32946 ft 559 kts 91°
2026-04-28 06:14 34.54321 137.97182 32951 ft 560 kts 91°
2026-04-28 06:14 34.54320 138.06586 32942 ft 556 kts 91°
2026-04-28 06:15 34.54299 138.15945 32945 ft 556 kts 91°
2026-04-28 06:15 34.54275 138.25334 32948 ft 555 kts 91°
2026-04-28 06:16 34.54279 138.34646 32945 ft 555 kts 88°
2026-04-28 06:16 34.54841 138.39257 32937 ft 553 kts 73°
2026-04-28 06:16 34.56230 138.43565 32953 ft 547 kts 60°
2026-04-28 06:17 34.59700 138.51781 32955 ft 547 kts 59°
2026-04-28 06:18 34.64841 138.64158 32955 ft 547 kts 59°
2026-04-28 06:18 34.68254 138.72429 32831 ft 544 kts 59°
2026-04-28 06:18 34.69931 138.76553 32385 ft 547 kts 61°
2026-04-28 06:19 34.71193 138.80928 32049 ft 554 kts 75°
2026-04-28 06:19 34.71625 138.85587 31775 ft 557 kts 89°
2026-04-28 06:19 34.71592 138.90303 31522 ft 556 kts 91°
2026-04-28 06:19 34.71527 138.94998 31110 ft 554 kts 91°
2026-04-28 06:20 34.71481 138.99646 30109 ft 550 kts 91°
2026-04-28 06:20 34.71453 139.04303 28706 ft 552 kts 91°
2026-04-28 06:20 34.71432 139.08981 27483 ft 553 kts 91°
2026-04-28 06:20 34.71409 139.13639 26318 ft 554 kts 92°
2026-04-28 06:21 34.71384 139.18279 25209 ft 553 kts 92°
2026-04-28 06:21 34.71358 139.22930 24387 ft 546 kts 92°
2026-04-28 06:21 34.71326 139.27527 23622 ft 542 kts 92°
2026-04-28 06:21 34.71293 139.32075 22693 ft 536 kts 92°
2026-04-28 06:22 34.71264 139.36560 21926 ft 526 kts 91°
2026-04-28 06:22 34.71609 139.41061 21446 ft 544 kts 78°
2026-04-28 06:22 34.72750 139.45385 20819 ft 528 kts 64°
2026-04-28 06:22 34.74484 139.49207 20089 ft 509 kts 56°
2026-04-28 06:23 34.76302 139.52829 19382 ft 495 kts 56°
2026-04-28 06:23 34.78041 139.56385 18669 ft 483 kts 57°
2026-04-28 06:23 34.79689 139.59903 17885 ft 472 kts 58°
2026-04-28 06:23 34.81275 139.63370 17062 ft 469 kts 58°
2026-04-28 06:24 34.82990 139.66705 16357 ft 460 kts 49°
2026-04-28 06:24 34.85233 139.69393 15732 ft 445 kts 32°
2026-04-28 06:24 34.87821 139.71200 15158 ft 428 kts 17°
2026-04-28 06:24 34.90590 139.72378 14626 ft 418 kts 12°
2026-04-28 06:25 34.93357 139.73446 14149 ft 415 kts 12°
2026-04-28 06:25 34.96099 139.74520 13682 ft 412 kts 13°
2026-04-28 06:25 34.98856 139.75751 13126 ft 432 kts 21°
2026-04-28 06:25 35.01279 139.77749 13007 ft 412 kts 38°
2026-04-28 06:26 35.03157 139.80253 13005 ft 386 kts 46°
2026-04-28 06:26 35.04859 139.82645 13012 ft 361 kts 44°
2026-04-28 06:26 35.06515 139.84816 13017 ft 337 kts 41°
2026-04-28 06:26 35.08101 139.86807 13016 ft 318 kts 42°
2026-04-28 06:27 35.09322 139.89031 13002 ft 320 kts 67°
2026-04-28 06:27 35.09678 139.91711 13025 ft 321 kts 95°
2026-04-28 06:27 35.09087 139.94284 13038 ft 313 kts 124°
2026-04-28 06:27 35.07813 139.96402 13062 ft 308 kts 135°
2026-04-28 06:28 35.06464 139.98439 13071 ft 310 kts 133°
2026-04-28 06:28 35.05170 140.00550 13048 ft 311 kts 131°
2026-04-28 06:28 35.03927 140.02709 13048 ft 312 kts 130°
2026-04-28 06:28 35.02738 140.04934 13051 ft 315 kts 123°
2026-04-28 06:29 35.01970 140.07458 13055 ft 320 kts 106°
2026-04-28 06:29 35.01504 140.10114 13054 ft 320 kts 104°
2026-04-28 06:29 35.01064 140.12775 13057 ft 319 kts 104°
2026-04-28 06:29 35.00610 140.15423 13061 ft 319 kts 104°
2026-04-28 06:30 35.00139 140.18074 13056 ft 320 kts 104°
2026-04-28 06:30 34.99973 140.20751 13054 ft 322 kts 86°
2026-04-28 06:30 35.00187 140.23504 13061 ft 322 kts 84°
2026-04-28 06:30 35.00431 140.26193 13064 ft 322 kts 84°
2026-04-28 06:31 35.00673 140.28906 13061 ft 322 kts 84°
2026-04-28 06:31 35.00911 140.31626 13066 ft 322 kts 84°
2026-04-28 06:31 35.01326 140.34308 13050 ft 321 kts 68°
2026-04-28 06:31 35.02262 140.36772 13066 ft 320 kts 60°
2026-04-28 06:32 35.03274 140.39190 13060 ft 320 kts 60°
2026-04-28 06:32 35.04276 140.41608 13060 ft 320 kts 60°
2026-04-28 06:32 35.05277 140.44040 13075 ft 320 kts 60°
2026-04-28 06:32 35.06551 140.46220 13049 ft 312 kts 36°
2026-04-28 06:33 35.08387 140.47457 13050 ft 296 kts
2026-04-28 06:33 35.10345 140.47514 12799 ft 270 kts 337°
2026-04-28 06:33 35.11942 140.46530 12412 ft 251 kts 315°
2026-04-28 06:33 35.13272 140.45169 12030 ft 250 kts 312°
2026-04-28 06:34 35.14605 140.43796 11655 ft 251 kts 313°
2026-04-28 06:34 35.15947 140.42458 11307 ft 252 kts 314°
2026-04-28 06:34 35.17321 140.41120 10940 ft 253 kts 314°
2026-04-28 06:34 35.18711 140.39789 10579 ft 254 kts 315°
2026-04-28 06:35 35.20104 140.38460 10226 ft 254 kts 315°
2026-04-28 06:35 35.21505 140.37126 9875 ft 255 kts 315°
2026-04-28 06:35 35.22900 140.35804 9627 ft 251 kts 315°
2026-04-28 06:35 35.24277 140.34500 9447 ft 251 kts 315°
2026-04-28 06:36 35.25658 140.33192 9316 ft 251 kts 315°
2026-04-28 06:36 35.27035 140.31888 9224 ft 250 kts 315°
2026-04-28 06:36 35.28407 140.30588 9154 ft 250 kts 315°
2026-04-28 06:36 35.29786 140.29284 9099 ft 250 kts 315°
2026-04-28 06:37 35.31167 140.27976 9034 ft 251 kts 315°
2026-04-28 06:37 35.32554 140.26663 9018 ft 251 kts 315°
2026-04-28 06:37 35.33919 140.25370 9015 ft 251 kts 315°
2026-04-28 06:37 35.35301 140.24060 9011 ft 251 kts 315°
2026-04-28 06:38 35.36710 140.22788 9017 ft 255 kts 321°
2026-04-28 06:38 35.38422 140.22054 8910 ft 269 kts 344°
2026-04-28 06:38 35.40304 140.22079 8612 ft 270 kts 357°
2026-04-28 06:38 35.42133 140.22267 8326 ft 265 kts 357°
2026-04-28 06:39 35.43981 140.22444 8147 ft 262 kts 357°
2026-04-28 06:39 35.45815 140.22601 7997 ft 270 kts 356°
2026-04-28 06:39 35.47697 140.22752 7892 ft 271 kts 357°
2026-04-28 06:39 35.49578 140.22898 7767 ft 271 kts 356°
2026-04-28 06:40 35.51456 140.23040 7642 ft 270 kts 357°
2026-04-28 06:40 35.53334 140.23180 7527 ft 270 kts 357°
2026-04-28 06:40 35.55204 140.23318 7431 ft 270 kts 357°
2026-04-28 06:40 35.57081 140.23458 7345 ft 269 kts 356°
2026-04-28 06:41 35.58954 140.23587 7261 ft 268 kts 355°
2026-04-28 06:41 35.60760 140.23292 7182 ft 257 kts 336°
2026-04-28 06:41 35.62430 140.22570 7114 ft 255 kts 333°
2026-04-28 06:41 35.64103 140.21807 7033 ft 254 kts 333°
2026-04-28 06:42 35.65771 140.21056 6976 ft 256 kts 334°
2026-04-28 06:42 35.67452 140.20309 6896 ft 257 kts 335°
2026-04-28 06:42 35.69116 140.19532 6833 ft 254 kts 329°
2026-04-28 06:42 35.70461 140.18237 6739 ft 244 kts 303°
2026-04-28 06:43 35.71205 140.16401 6676 ft 238 kts 286°
2026-04-28 06:43 35.71725 140.14473 6619 ft 237 kts 285°
2026-04-28 06:43 35.72236 140.12563 6530 ft 236 kts 285°
2026-04-28 06:43 35.72585 140.11284 6480 ft 237 kts 285°
2026-04-28 06:44 35.73115 140.09359 6407 ft 236 kts 286°
2026-04-28 06:44 35.73645 140.07457 6339 ft 235 kts 286°
2026-04-28 06:44 35.74181 140.05550 6289 ft 236 kts 286°
2026-04-28 06:44 35.74706 140.03693 6207 ft 236 kts 287°
2026-04-28 06:45 35.75254 140.01736 6124 ft 235 kts 286°
2026-04-28 06:45 35.75968 139.99198 6027 ft 237 kts 286°
2026-04-28 06:45 35.76326 139.97927 6003 ft 237 kts 286°
2026-04-28 06:45 35.76862 139.96009 5992 ft 236 kts 287°
2026-04-28 06:46 35.77391 139.94115 6004 ft 234 kts 286°
2026-04-28 06:46 35.77920 139.92215 6007 ft 236 kts 287°
2026-04-28 06:46 35.78454 139.90332 6015 ft 225 kts 287°
2026-04-28 06:46 35.78973 139.88534 6015 ft 221 kts 286°
2026-04-28 06:47 35.79489 139.86748 5947 ft 221 kts 287°
2026-04-28 06:47 35.79994 139.84970 5582 ft 220 kts 286°
2026-04-28 06:47 35.80496 139.83179 5236 ft 221 kts 286°
2026-04-28 06:47 35.80991 139.81399 4924 ft 218 kts 284°
2026-04-28 06:48 35.81319 139.79581 4616 ft 217 kts 277°
2026-04-28 06:48 35.81573 139.77750 4496 ft 218 kts 278°
2026-04-28 06:48 35.81831 139.75910 4483 ft 218 kts 278°
2026-04-28 06:48 35.82090 139.74066 4496 ft 218 kts 277°
2026-04-28 06:49 35.82195 139.72233 4407 ft 211 kts 269°
2026-04-28 06:49 35.82186 139.70436 4086 ft 210 kts 268°
2026-04-28 06:49 35.82173 139.68605 3973 ft 214 kts 268°
2026-04-28 06:49 35.82157 139.66820 3967 ft 205 kts 265°
2026-04-28 06:50 35.81775 139.65254 4005 ft 175 kts 242°
2026-04-28 06:50 35.81158 139.64113 4024 ft 150 kts 230°
2026-04-28 06:50 35.80280 139.63594 3990 ft 137 kts 196°
2026-04-28 06:50 35.79317 139.63648 3997 ft 142 kts 179°
2026-04-28 06:51 35.78352 139.63956 3985 ft 145 kts 172°
2026-04-28 06:51 35.77390 139.64373 3982 ft 148 kts 166°
2026-04-28 06:51 35.76438 139.64868 3981 ft 148 kts 165°
2026-04-28 06:51 35.75503 139.65411 3976 ft 149 kts 163°
2026-04-28 06:52 35.74572 139.65994 3917 ft 150 kts 162°
2026-04-28 06:52 35.73643 139.66584 3794 ft 151 kts 161°
2026-04-28 06:52 35.72727 139.67206 3629 ft 149 kts 159°
2026-04-28 06:52 35.71829 139.67837 3448 ft 147 kts 159°
2026-04-28 06:53 35.70944 139.68464 3263 ft 146 kts 159°
2026-04-28 06:53 35.70064 139.69089 3098 ft 147 kts 159°
2026-04-28 06:53 35.69182 139.69717 2903 ft 146 kts 159°
2026-04-28 06:53 35.68309 139.70338 2718 ft 144 kts 159°
2026-04-28 06:54 35.67457 139.70945 2535 ft 137 kts 160°
2026-04-28 06:54 35.66633 139.71529 2347 ft 137 kts 161°
2026-04-28 06:54 35.65816 139.72109 2159 ft 134 kts 161°
2026-04-28 06:54 35.65032 139.72667 1988 ft 129 kts 162°
2026-04-28 06:55 35.64259 139.73215 1817 ft 127 kts 161°
2026-04-28 06:55 35.63503 139.73752 1664 ft 124 kts 161°
2026-04-28 06:55 35.62759 139.74280 1493 ft 123 kts 161°
2026-04-28 06:55 35.62018 139.74806 1311 ft 122 kts 160°
2026-04-28 06:56 35.61281 139.75329 1142 ft 123 kts 159°
2026-04-28 06:56 35.60539 139.75855 980 ft 124 kts 157°
2026-04-28 06:56 35.59790 139.76388 816 ft 124 kts 156°
2026-04-28 06:56 35.59058 139.76916 674 ft 119 kts 155°
2026-04-28 06:57 35.58345 139.77433 482 ft 119 kts 156°
2026-04-28 06:57 35.57631 139.77936 403 ft 118 kts 158°
2026-04-28 06:57 35.56890 139.78429 221 ft 122 kts 156°
2026-04-28 06:57 35.56157 139.78960 69 ft 121 kts 156°
2026-04-28 06:58 35.55415 139.79481 101 ft 129 kts 158°
2026-04-28 06:58 35.54644 139.80063 392 ft 126 kts 150°
2026-04-28 06:58 35.53892 139.80622 770 ft 129 kts 153°
2026-04-28 06:58 35.53270 139.81445 1081 ft 148 kts 120°
2026-04-28 06:59 35.53450 139.82725 1518 ft 164 kts 61°
2026-04-28 06:59 35.53969 139.83488 1918 ft 164 kts 54°
2026-04-28 07:00 35.54505 139.84321 2279 ft 169 kts 54°
2026-04-28 07:00 35.55211 139.85481 2473 ft 162 kts 52°
2026-04-28 07:00 35.55889 139.86656 2665 ft 176 kts 55°
2026-04-28 07:00 35.56581 139.87922 3088 ft 187 kts 59°
2026-04-28 07:01 35.56891 139.89501 3527 ft 195 kts 88°
2026-04-28 07:01 35.57010 139.91191 3914 ft 201 kts 85°
2026-04-28 07:01 35.57163 139.92789 3993 ft 170 kts 83°
2026-04-28 07:01 35.57261 139.94158 3930 ft 154 kts 88°
2026-04-28 07:02 35.57401 139.95583 3947 ft 182 kts 73°
2026-04-28 07:02 35.57772 139.97059 4244 ft 180 kts 66°
2026-04-28 07:02 35.58152 139.98620 4438 ft 216 kts 78°
2026-04-28 07:02 35.58190 139.98899 4395 ft 227 kts 82°
2026-04-28 07:03 35.58173 140.01049 4132 ft 255 kts 92°
2026-04-28 07:03 35.58224 140.03236 4102 ft 257 kts 89°
2026-04-28 07:03 35.58336 140.05439 4043 ft 259 kts 87°
2026-04-28 07:03 35.58411 140.06684 4022 ft 261 kts 86°
2026-04-28 07:04 35.58528 140.08182 4009 ft 261 kts 85°
2026-04-28 07:04 35.58534 140.08266 4010 ft 261 kts 86°
2026-04-28 07:05 35.58585 140.08916 3984 ft 259 kts 86°
2026-04-28 07:05 35.58676 140.10198 3981 ft 262 kts 86°
2026-04-28 07:06 35.58765 140.11521 4002 ft 260 kts 86°
2026-04-28 07:07 35.58925 140.13418 3996 ft 277 kts 86°
2026-04-28 07:07 35.59135 140.15888 4017 ft 310 kts 87°
2026-04-28 07:08 35.59414 140.18655 4030 ft 336 kts 76°
2026-04-28 07:08 35.60103 140.20690 3999 ft 313 kts 57°
2026-04-28 07:09 35.60531 140.21401 3986 ft 303 kts 47°
2026-04-28 07:09 35.62141 140.22795 3967 ft 271 kts 15°
2026-04-28 07:09 35.63880 140.22978 3964 ft 240 kts 340°
2026-04-28 07:09 35.65343 140.22129 4000 ft 229 kts 321°
2026-04-28 07:10 35.66735 140.21111 4009 ft 237 kts 327°
2026-04-28 07:10 35.68204 140.20258 4009 ft 238 kts 331°
2026-04-28 07:10 35.69705 140.19401 3996 ft 234 kts 322°
2026-04-28 07:10 35.69895 140.19246 3993 ft 233 kts 318°
2026-04-28 07:11 35.70029 140.19120 3991 ft 231 kts 315°
2026-04-28 07:11 35.70700 140.18156 3985 ft 220 kts 294°